NOAA NWS Hourly Roundups by Site

Regional Weather Roundup for San Diego, CA

To Select Another Site Choose from List

Select Site:  

000
ASUS46 KSGX 190511
RWRSGX

SAN DIEGO HOURLY WEATHER ROUNDUP
NATIONAL WEATHER SERVICE SAN DIEGO CA
900 PM PST SAT JAN 18 2020

NOTE: "FAIR" INDICATES FEW OR NO CLOUDS BELOW 12,000 FEET WITH NO
SIGNIFICANT WEATHER AND/OR OBSTRUCTIONS TO VISIBILITY.

CAZ042-043-060-061-PZZ750-775-190600-

GREATER SAN DIEGO AREA

CITY           SKY/WX    TMP DP  RH WIND       PRES   REMARKS
SAN DIEGO AP   PTCLDY    55  51  86 CALM      30.15R
NATIONAL CITY    N/A    N/A N/A N/A CALM      30.14S
CHULA VISTA      N/A     53  49  86 CALM      30.04S
BROWN FIELD    PTCLDY    51  42  71 E7        30.12F
MIRAMAR MCAS   PTCLDY    49  42  77 CALM      30.13R
MONTGOMERY FLD PTCLDY    53  44  71 CALM      30.14R
GILLESPIE FLD  CLEAR     50  45  81 CALM      30.13F

$$

NORTH SAN DIEGO COUNTY

CITY           SKY/WX    TMP DP  RH WIND       PRES   REMARKS
CAMP PENDLETON CLEAR     46  41  82 CALM      30.13S
OCEANSIDE AP   CLEAR     45  42  89 CALM      30.13R
OCEANSIDE HBR    N/A     53  47  80 E3        30.21R
CARLSBAD       CLEAR     52  46  80 CALM      30.12S
DEL MAR          N/A     53  49  86 CALM      30.15R
LA JOLLA SCRIP   N/A     57  49  75 CALM      30.14R
FALLBROOK      FAIR      57  28  33 NE5       30.14R
ESCONDIDO        N/A     53  42  65 CALM      30.14R
SAN MARCOS       N/A     55  43  65 CALM      30.17R
POWAY            N/A     47  41  78 CALM      30.14S

$$

EAST SAN DIEGO COUNTY

CITY           SKY/WX    TMP DP  RH WIND       PRES   REMARKS
RAMONA         CLEAR     41  28  60 CALM      30.14S
SANTEE LAKES     N/A     49  44  84 N2        30.12S
LA MESA          N/A     56  41  56 CALM      30.08F
JAMUL            N/A     47  40  75 CALM      30.15S
DESCANSO N       N/A     57  10  15 E21       30.13F
MT. LAGUNA OBS   N/A     41  10  28 CALM      30.18F
CAMPO            N/A     55  11  17 E5        30.14F

$$

ORANGE COUNTY AND THE LOS ANGELES BASIN

CITY           SKY/WX    TMP DP  RH WIND       PRES   REMARKS
JOHN WAYNE AP  PTCLDY    59  48  67 CALM      30.13R
LAGUNA BEACH     N/A     47  44  89 CALM      30.12R
LAKE FOREST FR   N/A     56  28  34 NE3       30.03R
HUNTINGTON BCH   N/A     51  46  82 CALM      30.13R
LOS ALAMITOS   FAIR      54  38  54 CALM      30.13R
FULLERTON      CLEAR     59  32  36 N6        30.13R
LONG BEACH     CLEAR     55  42  61 NW6       30.14R
L.A. AP        PTCLDY    62  26  25 N7        30.14R
L.A. DOWNTOWN  CLEAR     61  31  32 CALM      30.14R

$$

THE INLAND EMPIRE

CITY           SKY/WX    TMP DP  RH WIND       PRES   REMARKS
CORONA         CLEAR     62  21  20 SE9       30.16
CHINO          CLEAR     53  28  38 SE8       30.16R
ONTARIO        MOCLDY    55  33  43 NW6       30.15R
SAN BERNARDINO PTCLDY    48  32  53 E3        30.17S
RIVERSIDE AP   CLEAR     56  22  26 E7        30.15S
MORENO VALLEY    N/A     51  36  56 CALM      30.18S
MARCH ARB      CLEAR     58  14  17 N13       30.16S
HORSETHIEF CYN   N/A     55  16  21 N7        30.18S
PERRIS           N/A     58  25  28 SE7       30.20R
HEMET EAST       N/A     53  17  23 CALM      30.20S
FRENCH VALLEY  FAIR      50  27  40 N5        30.16S
TEMECULA         N/A     56  35  45 W2        30.13R

$$

SAN BERNARDINO AND RIVERSIDE COUNTY MOUNTAINS

CITY           SKY/WX    TMP DP  RH WIND       PRES   REMARKS
BIG BEAR AP    CLEAR     28  18  64 CALM      30.34S

$$

SOUTHERN DESERT INCLUDING THE COACHELLA VALLEY

CITY           SKY/WX    TMP DP  RH WIND       PRES   REMARKS
PALM SPRINGS   PTCLDY    58  23  26 CALM      30.22S
THOUSAND PALMS   N/A     53  25  34 W2        30.17S
PALM DESERT      N/A     55  33  44 CALM      28.66S
THERMAL        MOCLDY    46  32  58 NW5       30.19R
BORREGO AP     FAIR      43  30  61 CALM      30.21S
BLYTHE         PTCLDY    52  18  26 NW9       30.20S
IMPERIAL AP    PTCLDY    49  25  39 W7        30.19S
EL CENTRO NAS  PTCLDY    49  16  26 W8        30.21S
YUMA AZ        CLEAR     54  23  30 NW5       30.18S
MEXICALI       PTCLDY    54  25  32 NW5       30.20F

$$

UPPER DESERT

CITY           SKY/WX    TMP DP  RH WIND       PRES   REMARKS
HESPERIA         N/A     39  20  46 CALM      30.42R
APPLE VALLEY     N/A     38  20  48 NE1       30.42R
PALMDALE       CLEAR     37  26  64 NW3       30.32R
LANCASTER      CLEAR     38  25  59 CALM      30.32R
EDWARDS AFB    CLEAR     41  23  48 N8        30.30R
DAGGETT        CLEAR     41  22  46 W5        30.30R
29 PALMS N     PTCLDY    47  16  29 W10       30.34S
NEEDLES        CLEAR     56  17  21 N9        30.24S

$$

REGIONAL REPORTS

CITY           SKY/WX    TMP DP  RH WIND       PRES   REMARKS
SANTA BARBARA  CLEAR     45  41  86 NW3       30.17R
SANDBERG       CLEAR     44  14  29 NE30      30.28S
LAS VEGAS NV   PTCLDY    48  18  30 W3        30.33S
PHOENIX AZ     PTCLDY    58  31  35 W5        30.14S
TIJUANA        PTCLDY    52  45  76 CALM      30.14F
ENSENADA NW      N/A     56  32  40 CALM      30.09F

$$

OFFSHORE ISLANDS

CITY           SKY/WX    TMP DP  RH WIND       PRES   REMARKS
CATALINA ARPT  CLEAR     58  25  28 N9        30.17R
SAN CLEMENTE I PTCLDY    56  32  40 W3        30.17R
SAN NICOLAS IS CLEAR     49  38  65 W13       30.16S

$$

MARINE AND OFFSHORE BUOY REPORTS

STATION/POSITION SKY/WX   TEMP    WIND        PRES    VSBY  SWELL
                          AIR SEA DIR/SP/G                  HT/PER/DIR
                          (F)     (DEG/KT/KT) (MB)    (MI)  (FT/S/D)
TANNER BANKS               58 59  320/ 10/ 12 1021.5R         5/290/12
S CLEMENTE BASIN           58 59  260/  6/  8 1020.9
SAN NICOLAS IS.               57                N/A           3/280/11
SO. S. ROSA ISLA              58              1022.5R
W. S. BARBARA CH           58 59  320/ 14/ 16 1022.0
M. S. BARBARA CH           56 56  280/  4/  6 1022.1
S. MONICA BASIN            61 60  350/  6/  8 1020.9S         3/260/11
S PEDRO CHANNEL               60                N/A           2/270/11
OCEANSIDE OFFSHR              60                N/A           2/200/13
TORREY PINES OTR              58                N/A           2/270/11
SAN DIEGO BAY                 59              1019.7
IMPERIAL BEACH                59                N/A           2/270/11
POINT LOMA SOUTH              61                N/A           2/270/11

$$



 

View Past Reports for San Diego, CA.

Products Courtesy of NOAA-NWS
NWS Information Parsing Script by Ken True at Saratoga Weather - Script by SE Lincoln Weather.